Location: Drocourt
(49.0571°N, 1.7669°E)
Time: 03:29:24
(UTC+00:00)

Transit 4A - Pass Details

Date: 13 April 2024
Orbit: 871 x 971 km, 66.8° (Epoch: 19 May)

Event Time Altitude Azimuth Distance (km) Brightness Sun altitude
Rises 17:37:13 0° 287° (WNW) 3,507 12.7 9.7°
Reaches altitude 10° 17:40:53 10° 310° (NW) 2,552 11.2 9.1°
Maximum altitude 17:44:17 15° 345° (NNW) 2,176 10.2 8.6°
Drops below altitude 10° 17:47:39 10° 21° (NNE) 2,535 10.1 8.0°
Sets 17:51:18 0° 44° (NE) 3,470 10.5 7.4°
